Regional Weather Roundup
Issued by NWS

Home | Current Version | Previous Version | Text Only | Print | Product List | Glossary Off
Versions: 1 2 3 4 5 6 7 8 9 10 11 12 13 14 15 16 17 18 19 20 21 22 23 24 25 26 27 28 29 30 31 32 33 34 35 36 37 38 39 40 41 42 43 44 45 46 47 48 49 50

441
ASUS45 KABQ 280610
RWRNM
NEW MEXICO REGIONAL WEATHER ROUNDUP
NATIONAL WEATHER SERVICE ALBUQUERQUE NM
1200 AM MDT WED SEP 28 2016

NOTE: "FAIR" MEANS FEW OR NO CLOUDS BELOW 12,000 FEET AGL WITH NO
       SIGNIFICANT WEATHER OR OBSTRUCTIONS TO VISION.

      THIS PRODUCT IS RELEASED AS TWO VERSIONS.  ONE VERSION NEAR
      THE TOP OF THE HOUR CONTAINING PRELIMINARY DATA FROM ALBUQUERQUE
      AND OTHER STATIONS.  A FINAL VERSION WITH ADDITIONAL DATA IS
      ISSUED ABOUT 10 MINUTES AFTER THE HOUR.

NMZ501-503-504-510>518-280700-
NORTHWEST PLATEAU/NORTHCENTRAL MOUNTAINS

CITY           SKY/WX    TMP DP  RH WIND       PRES   REMARKS
FARMINGTON     FAIR      56  32  40 NE6       30.21R
6HR MIN TEMP:  55; 6HR MAX TEMP:  74;

LOS ALAMOS     FAIR      61  24  23 W3        30.33S
SANTA FE       FAIR      51  31  46 NE5       30.28R
6HR MIN TEMP:  51; 6HR MAX TEMP:  73;

TAOS           FAIR      50  25  37 NE8       30.34S

$$
NMZ402-403-502-505>509-280700-
WESTCENTRAL MOUNTAINS/SOUTHWEST MOUNTAINS

CITY           SKY/WX    TMP DP  RH WIND       PRES   REMARKS
GALLUP         FAIR      48  45  89 NE5       30.29F
6HR MIN TEMP:  47; 6HR MAX TEMP:  59;

SILVER CITY    FAIR      59  48  67 NE3       30.25S

$$
NMZ407-409-411-412-280700-
SOUTHERN DESERTS

CITY           SKY/WX    TMP DP  RH WIND       PRES   REMARKS
DEMING         MOCLDY    64  52  64 W3        30.20R
6HR MIN TEMP:  64; 6HR MAX TEMP:  72;

LAS CRUCES     FAIR      63  55  74 W6        30.20S
HOLLOMAN AFB   FAIR      64  51  62 CALM      30.16R
ALAMOGORDO     FAIR      63  48  59 SW3       30.18S
T OR C         FAIR      63  51  65 S3        30.20S
6HR MIN TEMP:  63; 6HR MAX TEMP:  74;


$$
NMZ519>523-280700-
CENTRAL VALLEYS/CENTRAL HIGHLANDS

CITY           SKY/WX    TMP DP  RH WIND       PRES   REMARKS
ALBUQUERQUE    FAIR      62  40  44 SE7       30.23R
6HR MIN TEMP:  61; 6HR MAX TEMP:  77;

DOUBLE EAGLE   FAIR      55  41  60 CALM      30.26R
MORIARTY ARPT  FAIR      45  33  61 NW6       30.29S
6HR MIN TEMP:  45; 6HR MAX TEMP:  73;

CLINES CORNERS FAIR      52  38  58 SW9       30.32S
6HR MIN TEMP:  51; 6HR MAX TEMP:  70;

BELEN          FAIR      60  43  51 CALM      30.22S
6HR MIN TEMP:  59; 6HR MAX TEMP:  76;

SOCORRO        FAIR      57  46  66 SE3       30.20S
6HR MIN TEMP:  57; 6HR MAX TEMP:  76;


$$
NMZ524>526-539-540-280700-
SOUTHCENTRAL MOUNTAINS

CITY           SKY/WX    TMP DP  RH WIND       PRES   REMARKS
RUIDOSO        FAIR      54  36  50 W6        30.32F

$$
NMZ527>531-280700-
NORTHEAST HIGHLANDS/NORTHEAST PLAINS

CITY           SKY/WX    TMP DP  RH WIND       PRES   REMARKS
LAS VEGAS      FAIR      53  27  36 NW5       30.30S
6HR MIN TEMP:  48; 6HR MAX TEMP:  70;

RATON          FAIR      47  34  60 NE6       30.26R
6HR MIN TEMP:  46; 6HR MAX TEMP:  73;

CLAYTON        FAIR      57  34  41 W10       30.18R
6HR MIN TEMP:  57; 6HR MAX TEMP:  75;


$$
NMZ532>537-280700-
EASTCENTRAL PLAINS

CITY           SKY/WX    TMP DP  RH WIND       PRES   REMARKS
TUCUMCARI      FAIR      59  35  40 W6        30.13F
6HR MIN TEMP:  58; 6HR MAX TEMP:  82;

CANNON AFB     NOT AVBL
CLOVIS AIRPORT FAIR      55  39  54 SW7       30.17S

$$
NMZ028-029-538-280700-
SOUTHEAST PLAINS

CITY           SKY/WX    TMP DP  RH WIND       PRES   REMARKS
ROSWELL        FAIR      55  45  68 SW9       30.16S
6HR MIN TEMP:  55; 6HR MAX TEMP:  75;

ARTESIA        FAIR      57  54  88 SW9       30.16F
CARLSBAD       FAIR      60  51  72 S9        30.14F
6HR MIN TEMP:  57; 6HR MAX TEMP:  70;

HOBBS          FAIR      55  52  88 W6        30.19R


$$




USA.gov is the U.S. government's official web portal to all federal, state and local government web resources and services.